User: anonymous   Login
Location: Newark
(55.7816°N, 8.2389°E)
Time: 21:59:53
(UTC+00:00)
Language:

CUTE 1.7 + AOD 2 - Orbit

View from above orbital plane
View from above orbital plane
View from above satellite
View from above satellite

Ground track
Ground track

The orbit data is extracted from the following two-line orbital elements,

1 32785U 08021C   20052.49367041 +.00000200 +00000-0 +27190-4 0  9994
2 32785 097.5650 045.7111 0013622 155.0815 205.1063 14.88420165640474
Epoch (UTC): 21 February 2020 11:50:53
Eccentricity: 0.0013622
inclination: 97.5650°
perigee height: 593 km
apogee height: 612 km
right ascension of ascending node: 45.7111°
argument of perigee: 155.0815°
revolutions per day: 14.88420165
mean anomaly at epoch: 205.1063°
orbit number at epoch: 64047

The dashed part of the orbit path shows where the satellite is in the earth's shadow,  

DLR